[[{"header":{"parameterUnit":"m.s-1","parameterCategory":1,"la1":30.2992,"la2":30.254,"lo1":-89.0895,"lo2":-89.0443,"dy":0.0025,"dx":0.0025,"nx":19,"ny":19,"refTime":"2026-04-12T21:00:00:Z","depth":0,"parameterNumber":2,"parameterNumberName":"U-component_of_WINDS"},"data":[0,0,0,-2.6127,-2.6129,-2.6246,-2.6247,-2.6392,-2.6393,0,0,0,0,0,0,0,0,0,0,0,-2.6088,-2.6089,-2.6127,-2.613,-2.6246,-2.6247,-2.6392,-2.6393,0,0,0,0,0,0,0,0,0,0,0,-2.6088,-2.6089,-2.609,-2.613,-2.6246,-2.6247,-2.6392,-2.6305,0,0,0,0,0,0,0,0,0,0,-2.6193,-2.6152,-2.6089,-2.609,-2.6131,-2.6246,-2.6247,-2.6301,-2.6311,-2.6337,0,-2.6357,0,-2.6378,-2.6403,-2.6403,0,0,0,-2.6133,-2.6144,-2.618,-2.609,-2.6132,-2.6246,-2.6195,-2.6307,-2.6317,-2.635,-2.636,-2.6365,-2.638,-2.6404,-2.6404,-2.654,-2.654,0,0,-2.6127,-2.6107,-2.6172,-2.6186,-2.6166,-2.6191,-2.6198,-2.6313,-2.6324,-2.636,-2.6369,-2.6382,-2.6404,-2.6406,-2.6539,-2.654,0,0,0,-2.6106,-2.6102,-2.6135,-2.618,-2.6201,-2.6194,-2.6202,-2.6318,-2.6331,-2.637,-2.6384,-2.6405,-2.6407,-2.6539,-2.6539,-2.6542,0,0,0,-2.6102,-2.609,-2.6132,-2.6121,-2.6199,-2.6261,-2.6205,-2.6323,-2.6336,-2.6383,-2.6405,-2.6408,-2.6538,-2.6539,-2.6541,-2.6547,0,0,0,-2.6082,-2.6088,-2.6103,-2.612,-2.6169,-2.6259,-2.6278,-2.6326,-2.6345,-2.6403,-2.6409,-2.6538,-2.6539,-2.654,-2.6545,-2.6576,0,0,0,-2.6055,-2.6104,-2.6103,-2.6164,-2.6168,-2.626,-2.6278,-2.6348,-2.6398,-2.6406,-2.6538,-2.6539,-2.654,-2.6544,-2.6575,-2.6598,-2.6606,0,0,-2.6106,-2.611,-2.6147,-2.6149,-2.6236,-2.6244,-2.6332,-2.6398,-2.6422,-2.65,-2.6503,-2.6541,-2.6545,-2.6576,-2.6659,-2.6665,0,0,0,-2.6157,-2.6183,-2.6211,-2.6257,-2.6308,-2.6352,-2.6407,-2.6432,-2.6498,-2.6457,-2.6562,-2.6565,-2.6584,-2.6596,-2.6601,-2.6619,-2.6544,-2.6544,-2.6544,-2.62,-2.6228,-2.6292,-2.6334,-2.638,-2.6436,-2.6476,-2.6519,-2.6535,-2.6559,-2.6582,-2.6629,-2.6642,-2.6646,-2.6664,-2.6597,-2.6597,-2.6597,-2.6597,-2.6277,-2.6319,-2.6339,-2.6408,-2.6438,-2.6497,-2.6554,-2.6564,-2.6624,-2.6613,-2.6632,-2.6617,-2.6652,-2.6669,-2.6598,-2.6598,-2.6598,-2.6598,-2.6598,-2.6308,-2.6333,-2.6362,-2.6433,-2.6485,-2.6528,-2.6585,-2.6611,-2.6636,-2.6654,-2.6681,-2.6682,-2.6685,-2.6666,-2.6666,-2.6666,-2.6666,-2.6666,-2.6666,-2.6328,-2.6361,-2.6405,-2.6463,-2.6497,-2.6546,-2.6604,-2.6639,-2.6684,-2.6699,-2.67,-2.6713,-2.665,-2.6633,-2.6669,-2.6668,-2.6668,-2.6668,-2.6668,-2.6395,-2.6384,-2.6451,-2.6485,-2.6557,-2.6608,-2.6641,-2.671,-2.6743,-2.6771,-2.6782,-2.6731,-2.6737,-2.6733,-2.6719,-2.6775,-2.6775,-2.6775,-2.6775,-2.642,-2.6426,-2.6501,-2.6554,-2.6609,-2.6646,-2.6723,-2.677,-2.6817,-2.684,-2.6836,-2.682,-2.6815,-2.6824,-2.6818,-2.6806,-2.6883,-2.6883,-2.6883,-2.6463,-2.6475,-2.6534,-2.6578,-2.6637,-2.6688,-2.6762,-2.6824,-2.6875,-2.6888,-2.6858,-2.6854,-2.6829,-2.6819,-2.683,-2.682,-2.6798,0,0]},{"header":{"parameterUnit":"m.s-1","parameterCategory":1,"la1":30.2992,"la2":30.254,"lo1":-89.0895,"lo2":-89.0443,"dy":0.0025,"dx":0.0025,"nx":19,"ny":19,"refTime":"2026-04-12T21:00:00:Z","depth":0,"parameterNumber":3,"parameterNumberName":"V-component_of_WINDS"},"data":[0,0,0,4.1498,4.1497,4.1472,4.1471,4.1441,4.1441,0,0,0,0,0,0,0,0,0,0,0,4.1509,4.1509,4.1498,4.1497,4.1472,4.1471,4.1441,4.1441,0,0,0,0,0,0,0,0,0,0,0,4.1509,4.1509,4.1508,4.1497,4.1472,4.1471,4.1441,4.1459,0,0,0,0,0,0,0,0,0,0,4.1484,4.1497,4.1509,4.1508,4.1497,4.1472,4.1471,4.146,4.1458,4.1455,0,4.1454,0,4.1447,4.144,4.1439,0,0,0,4.1494,4.1499,4.1489,4.1508,4.1497,4.1472,4.1482,4.1459,4.1457,4.1452,4.1454,4.1452,4.1447,4.1439,4.1439,4.1435,4.1435,0,0,4.1496,4.1505,4.1491,4.1488,4.1494,4.1483,4.1482,4.1458,4.1459,4.1453,4.1452,4.1446,4.1439,4.1439,4.1435,4.1435,0,0,0,4.1502,4.1506,4.1497,4.149,4.1485,4.1482,4.1481,4.146,4.1456,4.1451,4.1446,4.1439,4.1439,4.1435,4.1435,4.1451,0,0,0,4.1503,4.151,4.1498,4.1503,4.1486,4.1472,4.1483,4.1458,4.1455,4.1446,4.1439,4.1438,4.1435,4.1435,4.1451,4.1457,0,0,0,4.1509,4.151,4.1508,4.1504,4.1494,4.1473,4.1467,4.1457,4.1452,4.1439,4.1438,4.1434,4.1435,4.145,4.1456,4.1459,0,0,0,4.1518,4.1521,4.1509,4.151,4.1494,4.1484,4.1468,4.1459,4.145,4.1439,4.1435,4.1435,4.145,4.1455,4.1459,4.1464,4.1467,0,0,4.1527,4.1522,4.1522,4.1511,4.1506,4.1487,4.1484,4.1465,4.1454,4.1442,4.1441,4.1451,4.1455,4.1459,4.1483,4.1486,0,0,0,4.1528,4.1528,4.1525,4.1519,4.1507,4.1497,4.1479,4.1472,4.1462,4.145,4.1453,4.1455,4.1457,4.1459,4.1461,4.1462,4.1436,4.1436,4.1436,4.1552,4.1541,4.1541,4.1527,4.1521,4.1504,4.1498,4.1486,4.1473,4.1475,4.147,4.1487,4.149,4.1491,4.1493,4.1473,4.1473,4.1473,4.1473,4.1563,4.1562,4.155,4.1545,4.1533,4.1528,4.1513,4.1505,4.1498,4.1488,4.1489,4.1479,4.1495,4.1495,4.1474,4.1474,4.1474,4.1474,4.1474,4.1577,4.1575,4.1569,4.1561,4.1555,4.1541,4.1537,4.1525,4.1514,4.1515,4.151,4.1509,4.1508,4.1514,4.1514,4.1514,4.1514,4.1514,4.1514,4.1594,4.1587,4.1586,4.1576,4.1572,4.1564,4.155,4.1545,4.1536,4.1528,4.1528,4.1516,4.1499,4.1495,4.1515,4.1514,4.1514,4.1514,4.1514,4.1609,4.1605,4.1602,4.1598,4.1587,4.1583,4.157,4.1561,4.1555,4.1554,4.1543,4.1532,4.1526,4.1524,4.152,4.1545,4.1545,4.1545,4.1545,4.1621,4.1618,4.1614,4.1609,4.1602,4.1591,4.1589,4.1578,4.1566,4.1562,4.1557,4.1551,4.155,4.1544,4.1542,4.1538,4.1567,4.1567,4.1567,4.1629,4.1626,4.1626,4.1616,4.1607,4.16,4.1598,4.1592,4.1577,4.1568,4.1558,4.1557,4.1548,4.1546,4.1535,4.1532,4.1525,0,0]}]]